Location: Stoke Bliss
(52.2667°N, 2.5167°W)
Time: 12:54:01
(UTC+00:00)

SeaSat 1 - Pass Details

Date: 03 March 2021
Orbit: 744 x 747 km, 108.0° (Epoch: 12 April)

Event Time Altitude Azimuth Distance (km) Brightness Sun altitude
Rises 19:32:57 0° 32° (NNE) 3,203 5.5 -16.0°
Reaches altitude 10° 19:35:14 10° 34° (NE) 2,276 4.7 -16.3°
Maximum altitude 19:40:11 73° 120° (ESE) 784 2.3 -17.1°
Drops below altitude 10° 19:45:07 10° 205° (SSW) 2,262 5.1 -17.8°
Sets 19:47:22 0° 207° (SSW) 3,182 5.9 -18.1°
